Vorticity
13 6 -4 7 5 9 11 6 27 23 8 4 5 17 10 10 1 5 3 10 3 -9 -1 2 5 9 9 2 -0 18 13 12 7 7 7 4 3 4 5 5 5 5 6 7
3 7 5 3 3 5 10 12 12 14 11 3 -2 8 30 13 10 1 0 8 -4 3 0 7 10 13 9 3 2 21 16 12 8 5 4 4 3 2 4 7 7 6 8 6
-1 -6 16 5 6 1 6 3 2 -8 -4 -9 9 8 6 10 7 5 2 -1 1 -5 5 4 17 12 5 6 -1 20 14 12 8 4 4 2 4 3 7 10 12 9 8 6
10 24 -22 26 10 6 3 -1 6 5 3 8 24 18 22 10 3 4 1 2 2 2 3 6 11 4 9 7 1 21 15 11 10 7 6 8 7 9 10 8 8 11 9 7
-6 21 10 -20 -2 25 -0 0 21 7 11 0 8 3 21 12 11 -4 -4 -3 -3 -2 -1 12 15 9 6 5 3 21 15 11 9 7 8 6 7 7 10 13 16 10 7 11
12 21 7 11 8 -30 38 2 29 17 11 41 -5 -18 16 6 8 7 3 5 16 7 11 19 21 16 5 10 6 20 14 14 10 9 8 7 8 11 13 11 8 7 10 9
43 16 -2 22 6 29 9 3 12 17 19 -5 37 23 -15 -2 23 34 26 33 13 8 11 16 12 6 2 5 14 15 11 11 11 10 5 7 9 12 10 10 9 12 8 6
-19 58 12 1 13 -10 12 12 -45 -1 7 26 10 17 -20 6 17 4 4 -32 8 -3 10 11 13 7 7 5 20 7 16 12 11 5 6 7 10 10 9 9 12 8 5 5
11 16 2 22 17 7 35 7 -5 -12 19 15 6 34 26 12 11 17 30 27 2 7 7 9 9 7 11 7 1 13 16 12 8 6 4 8 11 7 9 9 6 4 6 6
-25 39 7 -39 -2 14 -8 33 18 -16 2 4 25 13 -46 27 38 30 23 3 7 6 4 9 10 12 14 9 -0 13 13 12 7 3 4 7 9 6 8 7 7 6 6 6
-11 -26 22 32 18 2 6 5 -11 43 -51 -9 17 34 28 9 -8 -2 -12 6 5 11 10 14 10 12 10 5 4 10 13 12 7 5 6 7 7 8 7 9 8 6 5 6
-21 13 4 3 16 23 8 1 1 -40 32 34 -61 15 -68 9 35 21 14 9 10 6 14 6 11 12 9 4 3 15 15 12 5 6 8 5 5 8 9 10 7 5 6 6
-6 33 21 51 34 21 13 5 13 -17 22 -9 -40 52 42 1 3 1 6 -3 5 -1 22 11 14 8 10 7 4 13 18 11 4 7 4 5 6 7 11 8 5 4 4 4
30 -1 -14 -40 5 12 16 16 0 3 -7 -2 -1 -4 -14 -3 19 15 -5 19 -7 7 23 12 21 8 5 4 8 16 18 8 4 2 4 5 5 6 5 4 5 6 6 8
6 8 -4 1 -11 37 -0 15 12 3 -3 -14 -0 4 11 -16 4 10 15 -11 0 8 11 20 12 10 2 8 11 17 17 6 3 3 1 5 4 4 4 6 7 6 7 10
-4 -11 21 11 18 -9 -11 50 11 7 8 17 -6 -3 15 24 2 -5 -11 2 14 14 37 20 15 22 10 7 7 14 24 20 8 -2 1 6 1 4 6 8 6 8 17 19
-14 16 -1 35 5 3 47 1 4 33 6 4 -4 -0 -19 0 16 9 15 18 2 7 9 11 13 1 6 7 3 9 5 7 5 7 6 3 0 17 10 6 8 16 14 -4
3 9 19 1 18 28 42 40 7 -25 15 24 16 -7 19 16 1 -1 -3 7 -3 26 3 26 -2 7 6 6 7 9 1 6 7 5 7 1 2 22 10 14 37 -7 19 35
3 27 -1 -35 -1 -29 27 -8 10 -8 20 -16 11 24 22 -2 8 7 21 -3 17 -9 2 6 11 -4 5 -4 5 16 4 3 10 4 18 -6 16 14 14 5 0 7 -4 -1
25 34 -27 66 -7 14 23 22 21 54 23 37 23 -32 18 16 14 8 1 1 9 26 3 13 5 8 4 5 16 17 7 9 5 9 4 7 12 18 8 7 1 -31 32 31
0 23 -21 -17 -10 53 14 37 18 -10 19 39 63 26 40 -21 -10 11 -11 16 27 22 24 17 14 10 15 12 11 11 14 9 5 11 13 17 10 14 12 11 -26 36 16 14
4 -13 52 27 12 29 11 23 4 41 6 25 -9 42 24 42 45 34 19 34 17 29 6 7 16 10 14 10 6 8 11 12 10 16 24 18 14 10 22 33 17 15 11 6
20 -25 -42 -14 -8 -11 13 31 33 -24 28 26 11 33 9 30 25 19 28 -21 -9 11 19 14 16 7 2 2 5 17 12 15 20 21 15 3 11 23 9 12 12 10 3 3
3 12 12 10 9 12 41 2 21 9 0 23 31 24 20 4 14 32 23 34 16 5 9 11 12 12 8 10 16 7 11 14 9 9 7 20 8 6 15 12 9 4 3 9
3 27 8 24 33 28 16 30 18 14 -1 9 9 8 11 22 21 -4 25 29 15 2 -2 -1 3 10 16 9 12 15 14 9 7 11 10 4 9 18 10 10 8 3 4 8
0 -4 1 -16 -10 -31 -72 26 -29 -4 8 17 -27 -7 10 13 2 4 8 1 2 1 1 4 7 13 16 14 14 12 11 11 9 4 13 16 11 13 9 5 6 10 16 16
Height
3116 3119 3113 3122 3128 3131 3133 3133 3134 3137 3140 3139 3138 3136 3137 3140 3142 3143 3144 3145 3146 3147 3148 3146 3144 3145 3145 3146 3145 3144 3144 3145 3147 3148 3149 3150 3151 3151 3152 3152 3152 3152 3151 3150
3111 3099 3111 3122 3125 3126 3127 3128 3130 3133 3135 3134 3133 3130 3132 3133 3135 3138 3139 3139 3140 3142 3142 3140 3139 3140 3141 3141 3142 3140 3139 3140 3141 3142 3143 3144 3146 3146 3147 3147 3147 3148 3147 3147
3095 3099 3107 3113 3116 3117 3119 3122 3126 3128 3129 3127 3127 3122 3124 3127 3127 3130 3132 3134 3135 3136 3135 3135 3136 3136 3137 3137 3137 3135 3135 3136 3137 3138 3139 3140 3141 3142 3143 3143 3143 3143 3144 3144
3091 3097 3100 3104 3106 3113 3113 3118 3123 3123 3126 3121 3123 3111 3115 3121 3120 3124 3126 3127 3130 3130 3131 3129 3129 3130 3132 3133 3133 3131 3131 3132 3133 3134 3135 3136 3137 3139 3139 3139 3139 3141 3141 3141
3073 3083 3090 3096 3095 3106 3104 3112 3117 3120 3119 3119 3116 3115 3105 3112 3112 3115 3119 3121 3124 3125 3125 3124 3124 3126 3127 3127 3127 3126 3127 3127 3129 3130 3131 3132 3134 3135 3135 3136 3137 3137 3138 3137
3072 3079 3086 3084 3095 3100 3105 3110 3113 3115 3116 3106 3110 3112 3088 3095 3101 3108 3112 3115 3117 3118 3119 3118 3118 3119 3120 3121 3121 3121 3122 3123 3124 3126 3127 3129 3130 3131 3131 3132 3132 3132 3132 3132
3064 3068 3074 3080 3087 3093 3097 3104 3108 3113 3111 3093 3102 3108 3060 3087 3093 3098 3103 3107 3110 3111 3111 3109 3110 3113 3114 3116 3116 3118 3119 3120 3120 3122 3123 3125 3126 3126 3127 3128 3128 3129 3129 3129
3055 3060 3058 3065 3070 3079 3084 3092 3094 3096 3099 3089 3097 3085 3069 3079 3088 3093 3097 3100 3102 3103 3102 3101 3102 3106 3109 3111 3112 3113 3114 3115 3117 3118 3119 3121 3122 3123 3123 3123 3123 3124 3125 3124
3044 3044 3050 3057 3063 3073 3076 3083 3082 3087 3087 3086 3079 3071 3072 3076 3080 3084 3087 3090 3093 3095 3095 3094 3095 3099 3102 3105 3107 3108 3109 3111 3112 3114 3115 3116 3118 3118 3119 3119 3119 3120 3120 3120
3033 3039 3041 3051 3064 3064 3065 3070 3080 3081 3083 3085 3068 3064 3058 3063 3070 3076 3078 3081 3085 3087 3087 3088 3090 3093 3097 3100 3102 3103 3104 3106 3108 3109 3110 3112 3113 3113 3113 3114 3115 3115 3115 3115
3027 3031 3032 3042 3038 3040 3054 3060 3065 3067 3070 3065 3065 3051 3051 3057 3064 3068 3072 3075 3078 3079 3081 3083 3084 3087 3090 3094 3096 3098 3099 3101 3102 3104 3105 3107 3108 3109 3109 3109 3109 3110 3109 3109
3010 3024 3027 3024 3032 3040 3041 3046 3050 3049 3050 3055 3057 3030 3045 3048 3056 3061 3066 3070 3072 3073 3075 3077 3078 3080 3084 3088 3090 3092 3094 3096 3098 3098 3100 3101 3102 3103 3104 3104 3104 3104 3103 3102
3007 3010 3017 3023 3030 3032 3028 3027 3035 3044 3046 3045 3052 3012 3041 3044 3049 3056 3060 3063 3065 3066 3067 3069 3071 3074 3078 3082 3085 3086 3088 3090 3092 3093 3095 3096 3097 3097 3098 3097 3097 3096 3096 3095
2998 2997 3000 3000 3002 3016 3017 3023 3028 3034 3039 3026 3031 3019 3029 3038 3042 3049 3053 3056 3057 3058 3060 3063 3065 3069 3073 3076 3078 3079 3082 3085 3086 3087 3089 3091 3092 3092 3091 3090 3090 3089 3088 3087
2989 2989 2995 2993 3004 3009 3009 3011 3015 3017 3016 3021 3004 3019 3023 3030 3037 3042 3045 3047 3048 3050 3052 3054 3058 3063 3068 3070 3072 3073 3076 3079 3081 3082 3084 3086 3086 3085 3084 3084 3083 3082 3080 3078
2980 2978 2986 2984 2992 2999 3000 3003 3007 3005 3002 3012 3009 3007 3017 3025 3032 3033 3036 3039 3041 3041 3043 3047 3052 3058 3061 3064 3066 3067 3070 3072 3075 3077 3077 3078 3077 3077 3077 3077 3076 3074 3073 3069
2970 2973 2978 2971 2984 2993 2989 2981 2984 2993 2998 2999 3001 2981 3012 3014 3018 3023 3028 3031 3034 3036 3039 3042 3046 3051 3054 3057 3060 3061 3064 3066 3068 3069 3069 3069 3069 3069 3068 3066 3065 3062 3058 3055
2958 2965 2969 2967 2978 2973 2959 2975 2981 2982 2984 2987 2990 2993 3001 3005 3010 3015 3019 3022 3025 3029 3033 3036 3040 3044 3048 3051 3053 3055 3058 3060 3060 3061 3061 3061 3061 3061 3061 3059 3056 3050 3048 3042
2946 2954 2957 2956 2960 2959 2952 2953 2961 2968 2959 2978 2976 2983 2989 2997 3003 2998 3007 3013 3017 3021 3025 3029 3033 3037 3040 3042 3045 3047 3049 3051 3051 3052 3053 3053 3052 3053 3052 3048 3045 3040 3038 3038
2935 2936 2942 2944 2950 2946 2918 2949 2955 2968 2957 2961 2968 2973 2979 2988 2983 2985 2999 3003 3007 3012 3017 3020 3026 3028 3031 3033 3036 3038 3041 3044 3045 3044 3044 3044 3044 3044 3041 3039 3037 3035 3030 3029
2920 2926 2926 2933 2939 2936 2932 2940 2952 2957 2933 2947 2950 2955 2964 2966 2968 2982 2989 2994 2999 3003 3008 3012 3017 3020 3024 3026 3028 3031 3034 3035 3036 3036 3036 3037 3036 3036 3034 3032 3032 3030 3030 3027
2909 2919 2922 2929 2933 2931 2929 2934 2932 2932 2935 2938 2941 2943 2950 2956 2966 2974 2979 2984 2990 2995 3000 3005 3009 3012 3015 3017 3020 3023 3026 3027 3028 3029 3029 3029 3030 3029 3029 3028 3027 3027 3026 3026
2903 2904 2908 2916 2915 2918 2922 2923 2928 2930 2931 2934 2936 2938 2944 2950 2958 2967 2973 2978 2983 2989 2994 2999 3002 3005 3007 3010 3012 3015 3017 3019 3022 3022 3024 3025 3024 3023 3021 3020 3021 3022 3023 3022
2891 2896 2903 2909 2909 2911 2915 2918 2921 2926 2932 2932 2933 2937 2943 2948 2954 2961 2967 2972 2978 2981 2990 2993 2996 2999 3002 3004 3006 3010 3012 3013 3015 3016 3017 3018 3018 3017 3016 3014 3015 3016 3016 3014
2883 2889 2895 2900 2903 2907 2908 2911 2916 2923 2926 2926 2933 2938 2941 2943 2947 2953 2961 2966 2971 2976 2982 2985 2989 2993 2997 2999 3002 3005 3007 3008 3009 3009 3009 3011 3011 3010 3012 3010 3010 3009 3007 3006
2872 2880 2886 2885 2895 2899 2902 2912 2914 2918 2921 2924 2929 2934 2938 2943 2946 2951 2957 2961 2963 2967 2973 2979 2983 2987 2990 2993 2997 3000 3001 3002 3002 3003 3004 3003 3004 3006 3007 3004 3002 3003 3000 2997